Regional Weather Roundup
Issued by NWS Cleveland, OH

Home | Current Version | Previous Version | Graphics & Text | Print | Product List | Glossary On
Versions: 1 2 3 4 5 6 7 8 9 10 11 12 13 14 15 16 17 18 19 20 21 22 23 24 25 26 27 28 29 30 31 32 33 34 35 36 37 38 39 40 41 42 43 44 45 46 47 48 49 50
000
ASUS41 KCLE 251012
RWRCLE
OHIO REGIONAL WEATHER ROUNDUP
NATIONAL WEATHER SERVICE WILMINGTON, OH
600 AM EDT WED MAY 25 2016

NOTE: "FAIR" INDICATES FEW OR NO CLOUDS BELOW 12,000 FEET WITH NO
SIGNIFICANT WEATHER AND/OR OBSTRUCTIONS TO VISIBILITY.

OHZ001>008-015>018-024>027-034-035-043-044-251100-
   NORTHWEST OHIO

CITY           SKY/WX    TMP DP  RH WIND       PRES   REMARKS
DEFIANCE       FAIR      61  51  70 S3        30.06S
FINDLAY        FAIR      60  47  61 S9        30.08R
TOLEDO EXPRESS FAIR      56  49  77 CALM      30.06S
TOLEDO EXEC    FAIR      61  48  62 SW6       30.07S
LIMA           FAIR      62  49  62 S7        30.10R
$$

OHZ009>014-019>023-028>033-038-089-251100-
   NORTHEAST OHIO

CITY           SKY/WX    TMP DP  RH WIND       PRES   REMARKS
CLE-HOPKINS    MOCLDY    64  46  52 SW8       30.11R
CLE-LAKEFRONT  FAIR      68  45  43 S9        30.07R
CUY CO. ARPT   NOT AVBL
LORAIN-ELYRIA  FAIR      59  46  62 SW6       30.09R
ASHTABULA      FAIR      56  48  74 CALM      30.10R
AKRON-CANTON   MOCLDY    56  48  74 S5        30.13R
WOOSTER        FAIR      55  49  80 CALM      30.13R
MANSFIELD      FAIR      60  46  59 S6        30.12S
YOUNGSTOWN     MOCLDY    59  49  69 S6        30.11R
$$

OHZ042-051>053-060>062-070>072-077>081-251100-
  SOUTHWEST OHIO

CITY           SKY/WX    TMP DP  RH WIND       PRES   REMARKS
CINC-COVINGTON CLOUDY    64  53  67 S6        30.11R
CINC-LUNKEN    CLOUDY    57  56  96 CALM      30.12R
HAMILTON       MOCLDY    60  53  77 E5        30.11R
DAYTON         FAIR      64  48  56 S7        30.12R
WRIGHT-PAT AFB MOCLDY    61  52  72 CALM      30.11R
DAYTON GENERAL FAIR      63  48  58 S6        30.11R
WILMINGTON     CLOUDY    61  51  70 S5        30.13R
$$

OHZ036-037-039>041-045>050-054>059-063>069-073>076-082>088-251100-
  CENTRAL AND SOUTHEAST OHIO

CITY           SKY/WX    TMP DP  RH WIND       PRES   REMARKS
COLUMBUS       FAIR      54  51  90 CALM      30.12S
OSU AIRPORT      N/A     57  52  83 SE3       30.12
BOLTON FIELD   FAIR      55  50  82 S3        30.13S
RICKENBACK AFB FAIR      55  51  87 S3        30.13S
NEWARK         FAIR      51  49  92 CALM      30.13R
MARION         FAIR      56  49  77 S5        30.12R
LANCASTER      FAIR      50  48  93 CALM      30.14R
ZANESVILLE     FAIR      54  50  86 CALM      30.14R
NEW PHILLY     FAIR      54  50  86 E3        30.15R
$$




USA.gov is the U.S. government's official web portal to all federal, state and local government web resources and services.